CW3744 Weather Reports


time (UTC)temp
F
wind
direction
speed
knots
gust
knots
rain 1hr
in
rain 24hr
in
rain mn
in
humidity
%
barometer
mb
20260506231523 81 119 3.5 7.8 0.00 0.00 0.00 66 1014.8
20260506230051 82 97 1.7 7.8 0.00 0.00 0.00 65 1014.7
20260506224527 83 205 1.7 11.3 0.00 0.00 0.00 64 1014.6
20260506223044 84 94 1.7 7.8 0.00 0.00 0.00 64 1014.8
20260506221509 84 117 2.6 7.8 0.00 0.00 0.00 64 1014.8
20260506220048 84 101 0.0 7.8 0.00 0.00 0.00 66 1014.8
20260506214515 85 146 1.7 7.0 0.00 0.00 0.00 64 1014.6
20260506213044 85 103 3.5 8.7 0.00 0.00 0.00 64 1014.5
20260506211514 85 143 1.7 8.7 0.00 0.00 0.00 63 1014.7
20260506210047 85 167 2.6 7.0 0.00 0.00 0.00 63 1014.6
20260506204516 86 129 4.3 9.6 0.00 0.00 0.00 60 1014.8
20260506203052 86 127 4.3 8.7 0.00 0.00 0.00 60 1014.9
20260506201523 87 184 3.5 7.0 0.00 0.00 0.00 60 1014.9
20260506200107 87 85 2.6 8.7 0.00 0.00 0.00 59 1015.1
20260506200003 87 118 2.6 9.6 0.00 0.00 0.00 59 1015.2
20260506194544 88 128 2.6 7.8 0.00 0.00 0.00 58 1015.3
20260506193006 88 123 1.7 6.1 0.00 0.00 0.00 57 1015.3
20260506191548 90 99 0.9 7.0 0.00 0.00 0.00 56 1015.9
20260506190026 89 336 0.9 4.3 0.00 0.00 0.00 49 1015.9
20260506184506 91 317 6.1 9.6 0.00 0.00 0.00 51 1016.1
20260506183040 90 261 0.9 7.0 0.00 0.00 0.00 47 1016.2
20260506181601 91 146 2.6 7.0 0.00 0.00 0.00 48 1016.4
20260506180016 89 194 0.0 5.2 0.00 0.00 0.00 49 1016.5
20260506174551 89 148 2.6 7.8 0.00 0.00 0.00 50 1016.8
20260506173010 89 279 2.6 6.1 0.00 0.00 0.00 49 1017.0
20260506171544 89 141 2.6 7.0 0.00 0.00 0.00 50 1017.2
20260506170012 88 155 3.5 7.0 0.00 0.00 0.00 51 1017.4
20260506164548 87 99 1.7 7.0 0.00 0.00 0.00 52 1017.5
20260506163022 87 195 3.5 7.0 0.00 0.00 0.00 53 1017.6
20260506161556 86 215 2.6 11.3 0.00 0.00 0.00 54 1017.9
20260506160020 86 202 2.6 7.0 0.00 0.00 0.00 57 1017.9
20260506154550 85 107 1.7 7.8 0.00 0.00 0.00 57 1018.1
20260506153021 84 221 2.6 7.8 0.00 0.00 0.00 58 1017.9
20260506151553 83 182 2.6 7.0 0.00 0.00 0.00 58 1017.8
20260506150014 82 175 2.6 9.6 0.00 0.00 0.00 59 1017.7
20260506144559 81 156 4.3 10.4 0.00 0.00 0.00 60 1017.8
20260506143014 79 132 4.3 9.6 0.00 0.00 0.00 63 1017.8
20260506141546 78 129 5.2 8.7 0.00 0.00 0.00 66 1017.8
20260506140005 77 182 4.3 9.6 0.00 0.00 0.00 69 1017.6
20260506134520 76 161 3.5 7.8 0.00 0.00 0.00 71 1017.7
20260506133056 75 143 2.6 8.7 0.00 0.00 0.00 74 1017.8
20260506131524 73 175 4.3 8.7 0.00 0.00 0.00 76 1017.8
20260506130054 71 175 3.5 8.7 0.00 0.00 0.00 78 1017.6
20260506124514 69 159 1.7 7.8 0.00 0.00 0.00 84 1017.6
20260506123044 67 174 2.6 5.2 0.00 0.00 0.00 88 1017.6
20260506121519 65 164 1.7 4.3 0.00 0.00 0.00 92 1017.5
20260506120048 64 165 1.7 5.2 0.00 0.00 0.00 94 1017.4
20260506114515 63 164 0.9 3.5 0.00 0.00 0.00 94 1017.2
20260506113048 62 174 0.0 3.5 0.00 0.00 0.00 95 1017.2
20260506111530 61 176 0.0 0.0 0.00 0.00 0.00 94 1017.0
20260506110058 61 176 0.0 0.9 0.00 0.00 0.00 94 1016.6
20260506104528 61 177 0.0 1.7 0.00 0.00 0.00 93 1016.5
20260506103043 61 161 0.0 0.0 0.00 0.00 0.00 91 1016.5
20260506101522 62 155 0.0 0.0 0.00 0.00 0.00 90 1016.6
20260506100104 62 155 0.0 0.0 0.00 0.00 0.00 90 1016.6
20260506094513 62 155 0.0 0.0 0.00 0.00 0.00 89 1016.6
20260506093046 63 155 0.0 0.0 0.00 0.00 0.00 87 1016.6
20260506091518 63 155 0.0 0.0 0.00 0.00 0.00 86 1016.3
20260506090034 64 155 0.0 0.0 0.00 0.00 0.00 85 1016.1
20260506084522 65 155 0.0 0.0 0.00 0.00 0.00 83 1016.3
20260506083056 66 155 0.0 0.0 0.00 0.00 0.00 81 1016.5
20260506081516 66 155 0.9 3.5 0.00 0.00 0.00 80 1016.2
20260506080104 66 165 0.0 3.5 0.00 0.00 0.00 79 1016.5
20260506073103 66 165 1.7 4.3 0.00 0.00 0.00 79 1015.8
20260506071517 66 149 1.7 5.2 0.00 0.00 0.00 80 1016.0
20260506061519 63 146 0.9 1.7 0.00 0.00 0.00 88 1016.6
20260506044533 62 146 0.0 0.0 0.00 0.00 0.00 89 1017.2
20260506043059 62 146 0.0 0.0 0.00 0.00 0.00 88 1017.2
20260506041539 62 146 0.0 0.0 0.00 0.00 0.00 87 1017.1
20260506040059 63 146 0.0 0.0 0.00 0.00 0.00 86 1017.1
20260506040005 63 146 0.0 0.0 0.00 0.00 0.00 86 1017.1
20260506034541 63 146 0.0 0.0 0.00 0.00 0.00 85 1017.3
20260506033015 63 146 0.0 0.0 0.00 0.00 0.00 84 1017.3
20260506031547 64 146 0.0 0.0 0.00 0.00 0.00 83 1017.3
20260506030022 64 146 0.0 0.0 0.00 0.00 0.00 81 1017.2
20260506024607 65 146 0.0 0.0 0.00 0.00 0.00 79 1017.2
20260506023013 66 146 0.0 0.0 0.00 0.00 0.00 77 1017.0
20260506021552 67 146 0.0 0.0 0.00 0.00 0.00 75 1016.9
20260506020013 68 145 0.0 1.7 0.00 0.00 0.00 74 1016.8
20260506014549 68 125 0.0 1.7 0.00 0.00 0.00 74 1016.5
20260506013027 68 121 0.0 3.5 0.00 0.00 0.00 74 1016.6
20260506011624 69 121 0.0 0.9 0.00 0.00 0.00 73 1016.7
20260506011509 69 121 0.0 0.9 0.00 0.00 0.00 73 1016.7
20260506010041 69 123 0.0 1.7 0.00 0.00 0.00 71 1016.7
20260506004533 70 119 0.0 1.7 0.00 0.00 0.00 71 1016.6
20260506003049 70 89 0.0 1.7 0.00 0.00 0.00 70 1016.4
20260506001520 71 113 0.0 4.3 0.00 0.00 0.00 69 1016.4
20260506000048 72 180 0.9 4.3 0.00 0.00 0.00 68 1016.2
20260505234519 72 101 0.9 5.2 0.00 0.00 0.00 67 1016.4
20260505233047 73 128 2.6 6.1 0.00 0.00 0.00 66 1016.5